Location: Carri�res
(48.9069°N, 2.1792°E)
Time: 12:49:19
(UTC+00:00)

RESURS DK-1 - Pass Details

Date: 17 January 2021
Orbit: 557 x 560 km, 69.9° (Epoch: 25 February)

Event Time Altitude Azimuth Distance (km) Brightness Sun altitude
Rises 18:43:58 0° 239° (WSW) 2,737 7.0 -22.2°
Reaches altitude 10° 18:46:25 10° 252° (WSW) 1,845 6.1 -22.6°
Maximum altitude 18:49:59 27° 311° (NW) 1,082 4.2 -23.2°
Enters shadow 18:52:00 19° 355° (N) 1,376 4.3 -23.5°
